Location: Izdebno
(52.6670°N, 16.2170°E)
Time: 13:05:06
(UTC+02:00)

A-11 Canister half - Pass Details

Date: 25 February 2024
Orbit: 1525 x 1683 km, 47.3° (Epoch: 24 April)

Event Time Altitude Azimuth Distance (km) Brightness Sun altitude
Exits shadow 04:10:36 16° 196° (SSW) 3,281 10.4 -25.0°
Drops below altitude 10° 04:12:53 10° 183° (S) 3,716 10.8 -24.7°
Sets 04:16:56 0° 169° (SSE) 4,716 11.5 -24.1°
